Location: ?????????
(41.2393°N, 22.9479°E)
Time: 05:36:53
(UTC+00:00)

H-II Stage 2 - Pass Details

Date: 17 November 2025
Orbit: 321 x 26723 km, 28.4° (Epoch: 08 December)

Event Time Altitude Azimuth Distance (km) Brightness Sun altitude
Rises 16:27:04 0° 257° (WSW) 12,093 10.6 -15.0°
Reaches altitude 10° 16:41:33 10° 252° (WSW) 7,005 8.7 -17.7°
Maximum altitude 16:54:12 29° 200° (SSW) 2,045 4.9 -20.0°
Enters shadow 16:57:19 15° 147° (SSE) 1,885 4.3 -20.6°
